2017 Labor Day 30K

Milford, MI
2017-09-02
Starts on: 2017-09-02
Where: Milford, MI
Categories: 30K Run 30K Bike 10K Run/Walk 6K Fun Run/Walk 1/2 Mile Kid's Fun Run
Female 30K Run
name bib rank time pace hometown
Amber Dermyre 206 1 02:08:02 06:53 Canton, MI
Sarah Sandborn 272 2 02:08:25 06:54 Sunfield, MI
Erica Shell 130 3 02:11:44 07:05 Franklin, MI
Melissa Broyles 227 4 02:14:04 07:12 MILFORD, MI
Samantha Brish 187 5 02:21:01 07:34 Milford, MI
Lisa Veneziano 144 6 02:21:03 07:35 Fenton, MI
Heidi Drallos 207 7 02:26:25 07:52 Commerce Township, MI
Daneille Fowler 213 8 02:30:35 08:05 Avoca, MI
Kristen Smith 133 9 02:33:07 08:13 Chicago, IL
Stephanie Smith 306 10 02:34:25 08:18 Howell, MI
Julie Cauvin 274 11 02:35:25 08:21 Brighton, MI
Trina Romanowski 119 12 02:35:50 08:22 Hudson, MI
Mami Kato 72 13 02:36:00 08:23 Birmingham, MI
Ellen van Wageningen 143 14 02:37:06 08:26 Windsor, --
Amy Anikewich 174 15 02:37:31 08:28 Saint Clair Shore, MI
Rebecca Dragan 40 16 02:37:52 08:29 Canton, MI
Tania Babister 10 17 02:38:23 08:30 Tecumseh, --
Karly Olson 242 18 02:39:34 08:34 Saline, MI
Meg Schulte 251 19 02:43:24 08:46 Bloomfield, MI
Shannon Webster 151 20 02:43:26 08:47 Dearborn, MI
Julie Wojtaszek 263 21 02:43:31 08:47 Northville, MI
Tammy Bengela 294 22 02:45:07 08:52 Toledo, OH
Renee Champagne 279 23 02:46:22 08:56 Milford, MI
Deborah Schmidt 302 24 02:46:44 08:57 Sylvania, OH
Kaci Navarre 97 25 02:46:45 08:57 trenton, MI
Jessica Shehab 252 26 02:46:57 08:58 Northville Townsh, MI
Patti Rapp 113 27 02:47:05 08:58 Sylvania, OH
Bethellen Bastien 13 28 02:47:22 08:59 Amherstburg, --
Brittany Morris 92 29 02:48:00 09:01 HOWELL, MI
Allison Rodzik 117 30 02:48:44 09:04 NORTHVILLE, MI
Audrey Moore 241 31 02:48:48 09:04 Bingham Farms, MI
Michelle Alamo 5 32 02:48:57 09:04 Royal Oak, MI
Kate Tobiczyk 140 33 02:49:02 09:05 MILFORD, MI
Sue Filauro 211 34 02:49:54 09:07 Canton, MI
Wendy Gesund 51 35 02:51:23 09:12 Phoenix, AZ
Tracy Box 18 36 02:53:14 09:18 SEMMES, AL
Meaghan Karafa 70 37 02:54:00 09:21 GROSSE PT WDS, MI
Stephanie Kuharik 232 38 02:54:40 09:23 Troy, MI
Kimberlyn Fortino 48 39 02:54:44 09:23 CANTON, MI
Danielle Mulka 95 40 02:55:31 09:25 Walled Lake, MI
Kathleen Clark 27 41 02:55:54 09:27 Fraser, MI
Sara Pedersen 104 42 02:56:46 09:29 MILLBURY, OH
Angela Bunch 189 43 02:57:07 09:31 Warren, MI
Kristi Hewitt 224 44 02:57:27 09:32 Royal Oak, MI
Kelly Jewell 298 45 02:59:18 09:38 Lambertville, MI
Karen Price 109 46 03:00:22 09:41 rochester hills, MI
Rebecca Robinson 249 47 03:00:26 09:41 Lambertville, MI
Meredith Clark 265 48 03:01:45 09:46 Northville, MI
Jennifer Rio 247 49 03:03:37 09:52 Royal Oak, MI
Diane Mattson 237 50 03:03:40 09:52 Brighton, MI
Leigh Ball 11 51 03:04:11 09:53 BYRON CENTER, MI
denise dashner 31 52 03:04:17 09:54 Temperance, MI
Angie Long 235 53 03:04:31 09:54 Novi, MI
Malakeh Sivako 254 54 03:04:53 09:56 Dearborn, MI
Carole Hawke 57 55 03:05:12 09:57 DETROIT, MI
Sandra Charfoos 24 56 03:05:56 09:59 White Lake, MI
Marguerite Dillard 34 57 03:06:15 10:00 ANN ARBOR, MI
Kelly Carlson 193 58 03:07:56 10:05 Clarkston, MI
Jenni Wolgast 307 59 03:08:12 10:06 Swartz Creek, MI
Miho Kanamori 67 60 03:08:18 10:07 COMMERCE TWP, MI
Kathryn Selva 128 61 03:09:46 10:11 Plymouth, MI
Yuka Ito 65 62 03:10:08 10:13 Wixom, MI
Sara Bowman 17 63 03:11:05 10:16 FARMINGTON, MI
Coreen Paul 103 64 03:11:05 10:16 SACRAMENTO, CA
Pamela Franklin 49 65 03:11:08 10:16 Flint, MI
Chandana Kathuria 300 66 03:11:51 10:18 Novi, MI
Melissa Condevaux 197 67 03:12:56 10:22 Livonia, MI
Jill Maggi 82 68 03:14:13 10:26 ORTONVILLE, MI
Janie Vitek 149 69 03:15:58 10:31 WIXOM, MI
Mary Beth Snyder 134 70 03:16:22 10:33 Birmingham, MI
Tina Applegate 175 71 03:18:27 10:39 Walled Lake, MI
Andrea Eisenberg 208 72 03:20:24 10:46 Bloomfield Hills, MI
Sharry Bronson 188 73 03:20:40 10:46 Madison Heights, MI
Kimberly DeLaney 278 74 03:20:44 10:47 Livonia, MI
Diane Montgomery 90 75 03:22:02 10:51 LATHRUP VLG, MI
Chio Yoshida 159 76 03:22:03 10:51 ANN ARBOR, MI
Icelle Grace Villanueva 148 77 03:22:43 10:53 LIVONIA, MI
Betsy Anderson 173 78 03:23:43 10:56 Auburn, MI
Trina Link-Lawton 292 79 03:23:57 10:57 Burton, MI
Kari Carnell 194 80 03:23:58 10:57 Owosso, MI
Courtney Saxton 125 81 03:23:58 10:57 Flint, MI
Carrie Deierlein 33 82 03:24:37 10:59 Ann Arbor, MI
Shilpa Kolhatkar 77 83 03:26:04 11:04 NOVI, MI
Deanna Kennedy 228 84 03:27:04 11:07 Clarkston, MI
Shalini Gupta 54 85 03:28:52 11:13 NORTHVILLE, MI
Suzanne Kozloski 78 86 03:29:02 11:13 Grand Rapids, MI
Laura Wright 157 87 03:30:56 11:19 Toronto, --
vikki campbell 21 88 03:30:57 11:20 WATERFORD, MI
Lori Kosmatka 304 89 03:31:54 11:23 Chicago, IL
Krystal Dunlap 41 90 03:32:05 11:23 SOUTHFIELD, MI
Darlene Reimann 245 91 03:32:31 11:25 Troy, MI
Debbie Whitlock 262 92 03:32:56 11:26 Rochester, MI
Becky Boyd 19 93 03:32:57 11:26 Rochester, MI
Pamela Schroeder 126 94 03:32:57 11:26 Oxford, MI
Kerlyne Alexis-Pinkins 171 95 03:33:44 11:28 Detroit, MI
Cheryl Strange-Laetsch 138 96 03:34:28 11:31 Grass Lake, MI
Laura Lubahn 81 97 03:34:55 11:32 New Hudson, MI
Laurie White 261 98 03:35:34 11:34 Grand Blanc, MI
Jaylen Johnson 226 99 03:35:59 11:36 Washington, DC
Sally Miller 89 100 03:37:17 11:40 Lapeer, MI

Next Page